GIA213 WAHI-WIII

Flight info

Callsign GIA213
Flight time 0h 42m
Altitude 30000
Route CA W17S IMU
Aircraft B77W/H-SDE1E2E3FGHIJ2J3J4J5M1RWXY/LB1D1

Departure

Time 2026-04-21 20:22
Airport Yogyakarta International Airport (WAHI)

Arrival

Time 2026-04-21 21:05
Airport Soekarno-Hatta International Airport (WIII)
Time Latitude Longitude Altitude Speed Heading
2026-04-21 20:08 -7.90121 110.05865 46 ft 0 kts 20°
2026-04-21 20:13 -7.90125 110.05863 46 ft 3 kts 21°
2026-04-21 20:14 -7.90150 110.05853 43 ft 4 kts 27°
2026-04-21 20:14 -7.90173 110.05839 43 ft 4 kts 38°
2026-04-21 20:14 -7.90191 110.05820 43 ft 4 kts 67°
2026-04-21 20:14 -7.90194 110.05803 41 ft 0 kts 110°
2026-04-21 20:17 -7.90195 110.05806 41 ft 4 kts 110°
2026-04-21 20:17 -7.90223 110.05883 45 ft 14 kts 110°
2026-04-21 20:17 -7.90257 110.05977 45 ft 15 kts 110°
2026-04-21 20:17 -7.90293 110.06075 45 ft 15 kts 110°
2026-04-21 20:18 -7.90317 110.06140 43 ft 15 kts 110°
2026-04-21 20:18 -7.90367 110.06272 45 ft 15 kts 111°
2026-04-21 20:18 -7.90404 110.06371 45 ft 15 kts 110°
2026-04-21 20:18 -7.90442 110.06469 45 ft 15 kts 118°
2026-04-21 20:19 -7.90536 110.06492 45 ft 15 kts 194°
2026-04-21 20:19 -7.90639 110.06490 47 ft 16 kts 134°
2026-04-21 20:19 -7.90674 110.06599 44 ft 17 kts 106°
2026-04-21 20:19 -7.90710 110.06711 46 ft 17 kts 109°
2026-04-21 20:20 -7.90749 110.06821 48 ft 17 kts 109°
2026-04-21 20:20 -7.90790 110.06931 47 ft 17 kts 110°
2026-04-21 20:20 -7.90817 110.07004 48 ft 17 kts 110°
2026-04-21 20:20 -7.90857 110.07113 49 ft 17 kts 110°
2026-04-21 20:21 -7.90917 110.07207 48 ft 17 kts 170°
2026-04-21 20:21 -7.90998 110.07131 50 ft 17 kts 244°
2026-04-21 20:21 -7.91004 110.07017 51 ft 18 kts 287°
2026-04-21 20:21 -7.90788 110.06423 49 ft 126 kts 290°
2026-04-21 20:22 -7.90545 110.05752 55 ft 174 kts 291°
2026-04-21 20:22 -7.89421 110.03294 1379 ft 199 kts 313°
2026-04-21 20:22 -7.88262 110.02450 1904 ft 219 kts 329°
2026-04-21 20:23 -7.86861 110.01608 2314 ft 246 kts 329°
2026-04-21 20:23 -7.85354 110.00690 3083 ft 259 kts 328°
2026-04-21 20:23 -7.83786 109.99718 3965 ft 268 kts 328°
2026-04-21 20:23 -7.82193 109.98714 4964 ft 272 kts 328°
2026-04-21 20:24 -7.80580 109.97686 5933 ft 277 kts 327°
2026-04-21 20:24 -7.78940 109.96631 6655 ft 281 kts 327°
2026-04-21 20:24 -7.77284 109.95558 7013 ft 284 kts 327°
2026-04-21 20:24 -7.75625 109.94479 7014 ft 289 kts 327°
2026-04-21 20:25 -7.73914 109.93363 7438 ft 290 kts 327°
2026-04-21 20:25 -7.72244 109.92273 8433 ft 289 kts 327°
2026-04-21 20:25 -7.70529 109.91152 9439 ft 292 kts 327°
2026-04-21 20:25 -7.68833 109.90043 10233 ft 299 kts 327°
2026-04-21 20:26 -7.67011 109.88854 10557 ft 327 kts 327°
2026-04-21 20:26 -7.65021 109.87556 10935 ft 350 kts 328°
2026-04-21 20:26 -7.62900 109.86281 11720 ft 360 kts 331°
2026-04-21 20:26 -7.60682 109.85048 12695 ft 367 kts 332°
2026-04-21 20:27 -7.58429 109.83806 13741 ft 371 kts 332°
2026-04-21 20:27 -7.56156 109.82534 14658 ft 377 kts 331°
2026-04-21 20:27 -7.53851 109.81234 15521 ft 383 kts 331°
2026-04-21 20:27 -7.51507 109.79908 16390 ft 389 kts 331°
2026-04-21 20:28 -7.49127 109.78561 17255 ft 395 kts 332°
2026-04-21 20:28 -7.46719 109.77189 18120 ft 398 kts 329°
2026-04-21 20:28 -7.44576 109.75382 18680 ft 410 kts 308°
2026-04-21 20:28 -7.43056 109.72961 19335 ft 412 kts 301°
2026-04-21 20:29 -7.41572 109.70466 20057 ft 417 kts 302°
2026-04-21 20:29 -7.40042 109.67964 20870 ft 420 kts 302°
2026-04-21 20:29 -7.38487 109.65459 21711 ft 423 kts 302°
2026-04-21 20:29 -7.36911 109.62934 22495 ft 428 kts 302°
2026-04-21 20:30 -7.35319 109.60389 23234 ft 433 kts 302°
2026-04-21 20:30 -7.33702 109.57805 23876 ft 438 kts 302°
2026-04-21 20:30 -7.32074 109.55201 24539 ft 440 kts 302°
2026-04-21 20:30 -7.30437 109.52584 25228 ft 443 kts 302°
2026-04-21 20:31 -7.28793 109.49954 25897 ft 446 kts 302°
2026-04-21 20:31 -7.27136 109.47305 26609 ft 447 kts 303°
2026-04-21 20:31 -7.25483 109.44665 27497 ft 444 kts 303°
2026-04-21 20:31 -7.23845 109.42050 28462 ft 439 kts 303°
2026-04-21 20:32 -7.22220 109.39457 29376 ft 438 kts 303°
2026-04-21 20:32 -7.20586 109.36850 29867 ft 441 kts 303°
2026-04-21 20:32 -7.17324 109.31643 29854 ft 437 kts 303°
2026-04-21 20:33 -7.14122 109.26532 29857 ft 433 kts 303°
2026-04-21 20:33 -7.10901 109.21395 29859 ft 435 kts 303°
2026-04-21 20:34 -7.07668 109.16242 29857 ft 436 kts 303°
2026-04-21 20:34 -7.04424 109.11077 29857 ft 437 kts 303°
2026-04-21 20:35 -7.01179 109.05910 29856 ft 436 kts 303°
2026-04-21 20:35 -6.97940 109.00751 29854 ft 436 kts 303°
2026-04-21 20:36 -6.94704 108.95600 29853 ft 435 kts 303°
2026-04-21 20:36 -6.91473 108.90457 29856 ft 434 kts 303°
2026-04-21 20:37 -6.88247 108.85325 29849 ft 434 kts 303°
2026-04-21 20:37 -6.85044 108.80231 29855 ft 434 kts 303°
2026-04-21 20:38 -6.81820 108.75104 29856 ft 434 kts 303°
2026-04-21 20:38 -6.78595 108.69977 29864 ft 434 kts 303°
2026-04-21 20:39 -6.75370 108.64851 29854 ft 434 kts 303°
2026-04-21 20:39 -6.72142 108.59723 29849 ft 434 kts 303°
2026-04-21 20:40 -6.68379 108.55088 29864 ft 428 kts 327°
2026-04-21 20:40 -6.63197 108.52202 29858 ft 428 kts 332°
2026-04-21 20:41 -6.57946 108.49334 29859 ft 432 kts 332°
2026-04-21 20:41 -6.52672 108.46395 29860 ft 434 kts 332°
2026-04-21 20:42 -6.47393 108.43433 29851 ft 434 kts 331°
2026-04-21 20:42 -6.42122 108.40474 29846 ft 433 kts 331°
2026-04-21 20:43 -6.36871 108.37529 29845 ft 432 kts 331°
2026-04-21 20:43 -6.31634 108.34592 29843 ft 430 kts 331°
2026-04-21 20:44 -6.29211 108.32890 29815 ft 419 kts 316°
2026-04-21 20:44 -6.27228 108.30796 29812 ft 411 kts 314°
2026-04-21 20:44 -6.25279 108.28690 29378 ft 412 kts 314°
2026-04-21 20:44 -6.23321 108.26600 28955 ft 409 kts 314°
2026-04-21 20:45 -6.21368 108.24542 28500 ft 405 kts 314°
2026-04-21 20:45 -6.19420 108.22511 28065 ft 402 kts 315°
2026-04-21 20:45 -6.17478 108.20496 27637 ft 399 kts 315°
2026-04-21 20:45 -6.15552 108.18500 27215 ft 397 kts 315°
2026-04-21 20:46 -6.13635 108.16515 26776 ft 394 kts 315°
2026-04-21 20:46 -6.11730 108.14542 26356 ft 392 kts 315°
2026-04-21 20:46 -6.09829 108.12586 25943 ft 391 kts 315°
2026-04-21 20:46 -6.07931 108.10638 25520 ft 389 kts 315°
2026-04-21 20:47 -6.06073 108.08721 25081 ft 386 kts 312°
2026-04-21 20:47 -6.04616 108.06472 24528 ft 388 kts 291°
2026-04-21 20:47 -6.03942 108.03846 23927 ft 392 kts 276°
2026-04-21 20:47 -6.03803 108.01091 23239 ft 398 kts 270°
2026-04-21 20:48 -6.03777 107.98306 22581 ft 400 kts 270°
2026-04-21 20:48 -6.03774 107.95501 21960 ft 402 kts 269°
2026-04-21 20:48 -6.03772 107.92689 21371 ft 403 kts 270°
2026-04-21 20:48 -6.03764 107.89876 20880 ft 401 kts 270°
2026-04-21 20:49 -6.03747 107.87082 20408 ft 399 kts 270°
2026-04-21 20:49 -6.03724 107.84290 19785 ft 402 kts 270°
2026-04-21 20:49 -6.03696 107.81469 19111 ft 406 kts 270°
2026-04-21 20:49 -6.03665 107.78627 18457 ft 409 kts 270°
2026-04-21 20:50 -6.03632 107.75760 17757 ft 411 kts 270°
2026-04-21 20:50 -6.03599 107.72882 17011 ft 413 kts 270°
2026-04-21 20:50 -6.03565 107.69992 16282 ft 414 kts 270°
2026-04-21 20:50 -6.03530 107.67101 15568 ft 415 kts 270°
2026-04-21 20:51 -6.03496 107.64205 14877 ft 415 kts 270°
2026-04-21 20:51 -6.03461 107.61306 14189 ft 415 kts 270°
2026-04-21 20:51 -6.03427 107.58411 13514 ft 414 kts 271°
2026-04-21 20:51 -6.03392 107.55524 12757 ft 413 kts 271°
2026-04-21 20:52 -6.03357 107.52656 12211 ft 407 kts 271°
2026-04-21 20:52 -6.03323 107.49859 11949 ft 394 kts 271°
2026-04-21 20:52 -6.03290 107.47145 11651 ft 383 kts 271°
2026-04-21 20:52 -6.03259 107.44566 11311 ft 353 kts 271°
2026-04-21 20:53 -6.03231 107.42199 10993 ft 326 kts 271°
2026-04-21 20:53 -6.03203 107.39943 10725 ft 321 kts 271°
2026-04-21 20:53 -6.03175 107.37716 10453 ft 317 kts 271°
2026-04-21 20:53 -6.03148 107.35523 10155 ft 307 kts 271°
2026-04-21 20:54 -6.03123 107.33460 9902 ft 284 kts 271°
2026-04-21 20:54 -6.03099 107.31526 9592 ft 273 kts 271°
2026-04-21 20:54 -6.03075 107.29618 9278 ft 275 kts 271°
2026-04-21 20:54 -6.03050 107.27680 8998 ft 281 kts 271°
2026-04-21 20:55 -6.03025 107.25704 8676 ft 285 kts 271°
2026-04-21 20:55 -6.03000 107.23715 8349 ft 285 kts 271°
2026-04-21 20:55 -6.02974 107.21730 8032 ft 284 kts 271°
2026-04-21 20:55 -6.02949 107.19748 7705 ft 283 kts 271°
2026-04-21 20:56 -6.02924 107.17775 7384 ft 283 kts 271°
2026-04-21 20:56 -6.02899 107.15802 7068 ft 282 kts 271°
2026-04-21 20:56 -6.02874 107.13834 6745 ft 282 kts 271°
2026-04-21 20:56 -6.02849 107.11869 6441 ft 281 kts 271°
2026-04-21 20:57 -6.02824 107.09903 6106 ft 281 kts 271°
2026-04-21 20:57 -6.02799 107.07950 5751 ft 274 kts 271°
2026-04-21 20:57 -6.02775 107.06081 5449 ft 265 kts 271°
2026-04-21 20:57 -6.02751 107.04239 5202 ft 262 kts 271°
2026-04-21 20:58 -6.02728 107.02442 5081 ft 253 kts 271°
2026-04-21 20:58 -6.02705 107.00699 4962 ft 245 kts 271°
2026-04-21 20:58 -6.02683 106.99019 4850 ft 236 kts 271°
2026-04-21 20:58 -6.02662 106.97402 4728 ft 227 kts 271°
2026-04-21 20:59 -6.02642 106.95842 4577 ft 220 kts 271°
2026-04-21 20:59 -6.02622 106.94322 4349 ft 216 kts 271°
2026-04-21 20:59 -6.02821 106.92846 4017 ft 212 kts 247°
2026-04-21 20:59 -6.03437 106.91519 4056 ft 215 kts 248°
2026-04-21 21:00 -6.03986 106.90121 4036 ft 219 kts 250°
2026-04-21 21:00 -6.04540 106.88697 3941 ft 220 kts 249°
2026-04-21 21:00 -6.05108 106.87263 3724 ft 220 kts 249°
2026-04-21 21:00 -6.05671 106.85851 3531 ft 216 kts 249°
2026-04-21 21:01 -6.06224 106.84469 3349 ft 211 kts 249°
2026-04-21 21:01 -6.06767 106.83110 3172 ft 209 kts 249°
2026-04-21 21:01 -6.07309 106.81751 2919 ft 209 kts 249°
2026-04-21 21:01 -6.07846 106.80408 2658 ft 205 kts 249°
2026-04-21 21:02 -6.08371 106.79094 2419 ft 202 kts 249°
2026-04-21 21:02 -6.08892 106.77788 2142 ft 200 kts 249°
2026-04-21 21:02 -6.09408 106.76497 1880 ft 198 kts 249°
2026-04-21 21:02 -6.09903 106.75259 1659 ft 182 kts 249°
2026-04-21 21:03 -6.10357 106.74122 1389 ft 168 kts 248°
2026-04-21 21:03 -6.10770 106.73088 1189 ft 151 kts 248°
2026-04-21 21:03 -6.11146 106.72146 1029 ft 143 kts 248°
2026-04-21 21:03 -6.11522 106.71204 844 ft 145 kts 248°
2026-04-21 21:04 -6.11895 106.70271 662 ft 143 kts 248°
2026-04-21 21:04 -6.12262 106.69337 477 ft 144 kts 248°
2026-04-21 21:04 -6.12639 106.68407 301 ft 144 kts 247°
2026-04-21 21:04 -6.13011 106.67477 106 ft 142 kts 247°
2026-04-21 21:05 -6.13369 106.66583 48 ft 126 kts 248°
2026-04-21 21:05 -6.13592 106.66024 44 ft 29 kts 248°
2026-04-21 21:05 -6.13622 106.65871 44 ft 22 kts 270°
2026-04-21 21:05 -6.13603 106.65729 43 ft 16 kts 291°
2026-04-21 21:06 -6.13522 106.65661 43 ft 16 kts 341°
2026-04-21 21:06 -6.13431 106.65700 43 ft 16 kts 61°
2026-04-21 21:06 -6.13381 106.65799 43 ft 16 kts 47°
2026-04-21 21:06 -6.13275 106.65825 43 ft 17 kts
2026-04-21 21:07 -6.13190 106.65777 43 ft 10 kts 276°
2026-04-21 21:07 -6.13190 106.65774 43 ft 0 kts 275°